Tracking 26492 objects as of 8-Dec-2022
HD Live streaming from Space Station
objects crossing your sky now

MIDAS 3

Track MIDAS 3 now!
10-day predictions
MIDAS 3 is classified as:


NORAD ID: 163
Int'l Code: 1961-018A
Perigee: 3,354.1 km
Apogee: 3,548.4 km
Inclination: 91.1 °
Period: 161.5 minutes
Semi major axis: 9822 km
RCS: 10.0428 m2 (large)
Launch date: July 12, 1961
Source: United States (US)
Launch site: AIR FORCE WESTERN TEST RANGE (AFWTR)
aabbcc
Your satellite tracking list
Your tracking list is empty




NASA's NSSDC Master Catalog

Two Line Element Set (TLE):
1 00163U 61018A   22341.52639881 -.00000021  00000-0 -81462-2 0  9998
2 00163  91.1250 150.1666 0098896 130.0191 230.9410  8.91835410999207
Source of the keplerian elements: AFSPC